Powrót do katalogu

STARLINK-5646

AktywnyŁącznośćVLEO
NORAD 55461·PAYLOAD·🇺🇸 United States

Wystrzelony Feb 2, 2023 z Cape Canaveral Space Force Station

Loading…

Następne Przeloty (najbliższe 24 godziny)

TLE

ŚwieżeSource: CelesTrak SupGP

Epoka: Sep 14, 2026, 21:33 UTC

1 55461C 23015N   26257.89840278 -.00036678  00000+0 -13289-2 0  2573
2 55461  43.0022 340.1816 0001569 269.5063 282.1194 15.27586319    14

Śledź STARLINK-5646 w czasie rzeczywistym z AllMySat

Download on the App Store